Voltar ao catálogo

VRSS-2

AtivoCiênciaSSO
NORAD 42954·PAYLOAD·🇻🇪 Venezuela

Lançado Oct 9, 2017 de Jiuquan Satellite Launch Center

Loading…

Próximas Passagens (próximas 24 horas)

TLE

AtualizadoSource: Space-Track

Época: Sep 14, 2026, 21:30 UTC

1 42954U 17060A   26257.89614497  .00000266  00000-0  40904-4 0  9993
2 42954  97.8885 291.7572 0018755 159.3401 200.8574 14.81122254481732

Acompanhe VRSS-2 em tempo real com AllMySat

Download on the App Store